Location: Zagreb
(45.8000°N, 16.0000°E)
Time: 21:40:34
(UTC+02:00)

Transit 2A Rocket - All Passes

Search period start: 09 August 2022 00:00
Search period end: 19 August 2022 00:00
Orbit: 594 x 907 km, 66.7° (Epoch: 09 August)

Date Brightness Start Highest point End Pass type
(mag) Time Alt. Az. Time Alt. Az. Time Alt. Az.
09 Aug - 03:08:46 10° N 03:11:41 17° NE 03:14:38 10° E visible
09 Aug - 04:50:18 10° NW 04:54:42 80° WSW 04:59:21 10° SSE visible
09 Aug - 19:27:15 10° S 19:31:39 41° ESE 19:35:48 10° NE daylight
09 Aug - 21:10:22 10° WSW 21:14:16 27° NW 21:18:01 10° NNE visible
10 Aug - 02:26:51 10° NNE 02:28:24 12° NNE 02:29:58 10° NE visible
10 Aug - 04:07:29 10° NNW 04:11:50 58° NE 04:16:23 10° SE visible
10 Aug - 05:50:59 10° WNW 05:53:57 18° WSW 05:57:01 10° SSW daylight
10 Aug - 18:45:16 10° SSE 18:48:58 23° ESE 18:52:30 10° ENE daylight
10 Aug - 20:26:51 10° SW 20:31:14 44° NW 20:35:27 10° NNE daylight
11 Aug - 03:24:50 10° NNW 03:28:52 34° NE 03:33:03 10° ESE visible
11 Aug - 05:07:23 10° NW 05:11:19 31° WSW 05:15:25 10° S visible
11 Aug - 18:04:15 10° SE 18:06:22 13° ESE 18:08:26 10° E daylight
11 Aug - 19:43:42 10° SW 19:48:19 77° WNW 19:52:43 10° NNE daylight
11 Aug - 21:29:11 10° WNW 21:31:33 14° NW 21:33:52 10° N visible
12 Aug - 02:42:20 10° N 02:45:47 22° NE 02:49:20 10° E visible
12 Aug - 04:24:15 10° NW 04:28:35 56° WSW 04:33:10 10° SSE visible
12 Aug - 19:00:55 10° SSW 19:05:30 60° ESE 19:09:50 10° NE daylight
12 Aug - 20:44:55 10° W 20:48:20 21° NW 20:51:40 10° N visible
13 Aug - 02:00:05 10° N 02:02:35 15° NE 02:05:09 10° ENE visible
13 Aug - 03:41:21 10° NNW 03:45:45 82° NE 03:50:26 10° SE visible
13 Aug - 05:25:53 10° W 05:27:41 12° WSW 05:29:32 10° SW daylight
13 Aug - 18:18:36 10° S 18:22:45 33° ESE 18:26:43 10° NE daylight
13 Aug - 20:01:09 10° WSW 20:05:14 32° NW 20:09:11 10° NNE daylight
14 Aug - 01:18:56 10° NNE 01:19:16 10° NNE 01:19:35 10° NE visible
14 Aug - 02:58:36 10° NNW 03:02:51 47° NE 03:07:20 10° SE visible
14 Aug - 04:41:39 10° WNW 04:45:06 22° WSW 04:48:43 10° SSW visible
14 Aug - 17:36:54 10° SSE 17:40:06 19° ESE 17:43:12 10° ENE daylight
14 Aug - 19:17:46 10° SW 19:22:15 54° NW 19:26:33 10° NNE daylight
14 Aug - 21:04:31 10° NW 21:05:45 11° NNW 21:06:58 10° NNW visible
15 Aug - 02:16:00 10° NNW 02:19:51 29° NE 02:23:51 10° ESE visible
15 Aug - 03:58:17 10° NW 04:02:25 39° WSW 04:06:49 10° S visible
15 Aug - 18:34:46 10° SSW 18:39:23 86° ESE 18:43:46 10° NE daylight
15 Aug - 20:19:39 10° WNW 20:22:27 16° NW 20:25:12 10° N daylight
16 Aug - 01:33:34 10° N 01:36:43 19° NE 01:39:58 10° E visible
16 Aug - 03:15:14 10° NW 03:19:39 71° WSW 03:24:21 10° SSE visible
16 Aug - 17:52:09 10° S 17:56:35 47° ESE 18:00:48 10° NE daylight
16 Aug - 19:35:36 10° W 19:39:17 24° NW 19:42:52 10° NNE daylight
17 Aug - 00:51:27 10° N 00:53:28 13° NE 00:55:31 10° ENE visible
17 Aug - 02:32:24 10° NNW 02:36:48 66° NE 02:41:29 10° SE visible
17 Aug - 04:16:09 10° WNW 04:18:52 16° WSW 04:21:39 10° SW visible
17 Aug - 17:10:03 10° S 17:13:52 26° ESE 17:17:33 10° NE daylight
17 Aug - 18:51:59 10° WSW 18:56:14 39° NW 19:00:19 10° NNE daylight
18 Aug - 01:49:42 10° NNW 01:53:51 39° NE 01:58:13 10° ESE visible
18 Aug - 03:32:25 10° NW 03:36:14 28° WSW 03:40:15 10° S visible
18 Aug - 16:28:44 10° SE 16:31:16 15° ESE 16:33:44 10° ENE daylight
18 Aug - 18:08:45 10° SW 18:13:17 67° NW 18:17:37 10° NNE daylight
18 Aug - 19:54:38 10° WNW 19:56:37 13° NW 19:58:33 10° N daylight
